Change the Weather History Date:

Monday, April 22, 2013

  Actual Average Record
Temperature  
Mean Temperature 69 °F 62 °F  
Max Temperature 90 °F 77 °F 96 °F (1950)
Min Temperature 48 °F 48 °F 41 °F (2008)
Degree Days  
Heating Degree Days 0    
Month to date heating degree days 72  
Since 1 July heating degree days 2318  
Cooling Degree Days 4    
Month to date cooling degree days 11  
Year to date cooling degree days 17  
Growing Degree Days 19 (Base 50)    
Moisture  
Dew Point 43 °F    
Average Humidity 51    
Maximum Humidity 80    
Minimum Humidity 21    
Precipitation  
Precipitation 0.00 in 0.02 in 0.23 in (2004)
Month to date precipitation 0.08 0.58  
Year to date precipitation 1.42 5.98  
Since 1 July precipitation 3.42 9.32  
Snow  
Snow 0.00 in - - ()
Month to date snowfall 0.0  
Since 1 July snowfall 0.0  
Snow Depth 0.00 in    
Sea Level Pressure  
Sea Level Pressure 29.89 in    
Wind  
Wind Speed 4 mph (NW)    
Max Wind Speed 14 mph    
Max Gust Speed 20 mph    
Visibility 10 miles    
Events      
T = Trace of Precipitation, MM = Missing Value Source: NWS Daily Summary

Daily Weather History Graph

Daily Weather History Graph

Search for Another Location

Airport or City:

Trip Planner

Search our weather history database for the weather conditions in past years. The results will help you decide how hot, cold, wet, or windy it might be!

Date:

Astronomy

Apr. 22, 2013 Rise Set
Actual Time 6:15 AM PDT 7:38 PM PDT
Civil Twilight 5:48 AM PDT 8:05 PM PDT
Nautical Twilight 5:16 AM PDT 8:38 PM PDT
Astronomical Twilight 4:42 AM PDT 9:12 PM PDT
Moon 4:37 PM PDT (4/22) 4:07 AM PDT (4/22)
Length of Visible Light 14h 17m
Length of Day
13h 23m
Waxing Gibbous, 88% of the Moon is Illuminated
Apr 22
Waxing Gibbous
Apr 25
Full
May 2
Last Quarter
May 9
New
May 17
First Quarter

Hourly Weather History & Observations

Time (PDT) Temp. Dew Point Humidity Pressure Visibility Wind Dir Wind Speed Gust Speed Precip Events Conditions
12:53 AM 57.9 °F 44.1 °F 60% 29.96 in 10.0 mi ENE 3.5 mph - N/A   Clear
1:53 AM 55.0 °F 44.1 °F 67% 29.95 in 10.0 mi Calm Calm - N/A   Clear
2:53 AM 53.1 °F 44.1 °F 71% 29.93 in 10.0 mi Calm Calm - N/A   Clear
3:53 AM 52.0 °F 43.0 °F 71% 29.92 in 10.0 mi Calm Calm - N/A   Clear
4:53 AM 50.0 °F 43.0 °F 77% 29.92 in 9.0 mi Calm Calm - N/A   Clear
5:53 AM 52.0 °F 44.1 °F 74% 29.93 in 10.0 mi Calm Calm - N/A   Clear
6:53 AM 50.0 °F 44.1 °F 80% 29.94 in 6.0 mi Calm Calm - N/A   Haze
7:53 AM 59.0 °F 46.9 °F 64% 29.95 in 7.0 mi Calm Calm - N/A   Clear
9:53 AM 73.0 °F 43.0 °F 34% 29.95 in 10.0 mi NW 5.8 mph - N/A   Clear
10:53 AM 78.1 °F 44.1 °F 30% 29.95 in 10.0 mi NW 5.8 mph - N/A   Clear
11:53 AM 82.0 °F 44.1 °F 26% 29.94 in 10.0 mi NNW 5.8 mph - N/A   Clear
12:53 PM 82.9 °F 45.0 °F 26% 29.91 in 10.0 mi Variable 6.9 mph - N/A   Clear
1:53 PM 87.1 °F 43.0 °F 21% 29.89 in 10.0 mi NNW 9.2 mph - N/A   Clear
2:53 PM 87.1 °F 44.1 °F 22% 29.86 in 10.0 mi NW 10.4 mph - N/A   Clear
3:53 PM 88.0 °F 45.0 °F 22% 29.83 in 10.0 mi NNW 9.2 mph 19.6 mph N/A   Clear
4:53 PM 88.0 °F 45.0 °F 22% 29.81 in 10.0 mi NW 10.4 mph 18.4 mph N/A   Clear
5:53 PM 88.0 °F 41.0 °F 19% 29.81 in 10.0 mi NW 10.4 mph - N/A   Clear
6:53 PM 86.0 °F 39.9 °F 20% 29.80 in 10.0 mi NW 12.7 mph - N/A   Clear
7:53 PM 80.1 °F 42.1 °F 26% 29.81 in 10.0 mi NW 8.1 mph - N/A   Clear
8:53 PM 75.9 °F 43.0 °F 31% 29.82 in 10.0 mi NW 8.1 mph - N/A   Clear
9:53 PM 72.0 °F 43.0 °F 35% 29.83 in 10.0 mi WNW 4.6 mph - N/A   Clear
10:53 PM 72.0 °F 45.0 °F 38% 29.83 in 10.0 mi NW 6.9 mph - N/A   Clear
11:53 PM 71.1 °F 37.9 °F 30% 29.82 in 10.0 mi WNW 10.4 mph - N/A   Clear